Time,TemperatureF,DewpointF,PressureIn,WindDirection,WindDirectionDegrees,WindSpeedMPH,WindSpeedGustMPH,Humidity,HourlyPrecipIn,Conditions,Clouds,dailyrainin,SoftwareType,DateUTC
2013-01-22 00:02:00,33.0,30.0,30.28,South,191,0.0,0.0,89,0.00,,,0.00,,2013-01-22 06:02:00,
2013-01-22 00:12:00,33.0,30.0,30.28,South,191,0.0,0.0,89,0.00,,,0.00,,2013-01-22 06:12:00,
2013-01-22 00:22:00,33.0,30.0,30.28,South,191,0.0,0.0,90,0.00,,,0.00,,2013-01-22 06:22:00,
2013-01-22 00:32:00,33.0,30.0,30.28,South,191,0.0,0.0,90,0.00,,,0.00,,2013-01-22 06:32:00,
2013-01-22 00:42:00,33.0,30.0,30.28,South,191,0.0,0.0,90,0.00,,,0.00,,2013-01-22 06:42:00,
2013-01-22 00:53:00,34.0,31.0,30.28,South,191,0.0,0.0,90,0.00,,,0.00,,2013-01-22 06:53:00,
2013-01-22 01:02:00,34.0,31.0,30.28,South,191,0.0,0.0,89,0.00,,,0.00,,2013-01-22 07:02:00,
2013-01-22 01:12:00,34.0,31.0,30.28,South,191,0.0,0.0,89,0.00,,,0.00,,2013-01-22 07:12:00,
2013-01-22 01:22:00,34.0,31.0,30.28,North,10,3.0,3.0,89,0.00,,,0.00,,2013-01-22 07:22:00,
2013-01-22 01:32:00,34.0,31.0,30.28,NNE,28,2.0,2.0,90,0.00,,,0.00,,2013-01-22 07:32:00,
2013-01-22 01:42:00,34.0,31.0,30.28,NNE,28,2.0,2.0,90,0.00,,,0.00,,2013-01-22 07:42:00,
2013-01-22 01:53:00,34.0,31.0,30.28,NNE,32,0.0,0.0,90,0.00,,,0.00,,2013-01-22 07:53:00,
2013-01-22 02:02:00,34.0,31.0,30.28,NNE,32,0.0,0.0,90,0.00,,,0.00,,2013-01-22 08:02:00,
2013-01-22 02:12:00,34.0,31.0,30.28,NNE,32,0.0,0.0,90,0.00,,,0.00,,2013-01-22 08:12:00,
2013-01-22 02:22:00,34.0,31.0,30.29,North,4,3.0,3.0,90,0.00,,,0.00,,2013-01-22 08:22:00,
2013-01-22 02:32:00,33.0,31.0,30.29,North,10,2.0,3.0,91,0.00,,,0.00,,2013-01-22 08:32:00,
2013-01-22 02:42:00,33.0,31.0,30.29,North,10,2.0,3.0,91,0.00,,,0.00,,2013-01-22 08:42:00,
2013-01-22 02:52:00,33.0,31.0,30.30,North,352,3.0,3.0,92,0.00,,,0.00,,2013-01-22 08:52:00,
2013-01-22 03:02:00,34.0,32.0,30.30,North,0,4.0,4.0,91,0.00,,,0.00,,2013-01-22 09:02:00,
2013-01-22 03:12:00,34.0,32.0,30.30,North,0,4.0,4.0,91,0.00,,,0.00,,2013-01-22 09:12:00,
2013-01-22 03:22:00,34.0,32.0,30.30,North,6,3.0,3.0,91,0.00,,,0.00,,2013-01-22 09:22:00,
2013-01-22 03:32:00,34.0,31.0,30.29,NNE,21,0.0,0.0,90,0.00,,,0.00,,2013-01-22 09:32:00,
2013-01-22 03:42:00,34.0,31.0,30.29,NNE,21,0.0,0.0,90,0.00,,,0.00,,2013-01-22 09:42:00,
2013-01-22 03:52:00,34.0,31.0,30.31,NNE,21,0.0,0.0,90,0.00,,,0.00,,2013-01-22 09:52:00,
2013-01-22 04:02:00,34.0,31.0,30.31,NNE,21,0.0,0.0,90,0.00,,,0.00,,2013-01-22 10:02:00,
2013-01-22 04:12:00,34.0,31.0,30.31,NNE,21,0.0,0.0,90,0.00,,,0.00,,2013-01-22 10:12:00,
2013-01-22 04:22:00,34.0,31.0,30.30,NNE,21,0.0,0.0,90,0.00,,,0.00,,2013-01-22 10:22:00,
2013-01-22 04:32:00,33.0,31.0,30.29,NNE,21,0.0,0.0,91,0.00,,,0.00,,2013-01-22 10:32:00,
2013-01-22 04:42:00,33.0,31.0,30.29,NNE,21,0.0,0.0,91,0.00,,,0.00,,2013-01-22 10:42:00,
2013-01-22 04:52:00,32.0,30.0,30.28,SSE,163,3.0,3.0,93,0.00,,,0.00,,2013-01-22 10:52:00,
2013-01-22 05:02:00,31.0,30.0,30.28,South,184,4.0,4.0,95,0.00,,,0.00,,2013-01-22 11:02:00,
2013-01-22 05:12:00,31.0,30.0,30.28,South,184,4.0,4.0,95,0.00,,,0.00,,2013-01-22 11:12:00,
2013-01-22 05:22:00,31.0,30.0,30.29,SSW,193,0.0,0.0,95,0.00,,,0.00,,2013-01-22 11:22:00,
2013-01-22 05:33:00,31.0,30.0,30.29,SSW,193,0.0,0.0,96,0.00,,,0.00,,2013-01-22 11:33:00,
2013-01-22 05:42:00,31.0,30.0,30.29,SSW,193,0.0,0.0,96,0.00,,,0.00,,2013-01-22 11:42:00,
2013-01-22 05:53:00,30.0,29.0,30.29,SSW,193,0.0,0.0,96,0.00,,,0.00,,2013-01-22 11:53:00,
2013-01-22 06:03:00,30.0,29.0,30.30,SSW,193,0.0,0.0,96,0.00,,,0.00,,2013-01-22 12:03:00,
2013-01-22 06:12:00,30.0,29.0,30.30,SSW,193,0.0,0.0,96,0.00,,,0.00,,2013-01-22 12:12:00,
2013-01-22 06:23:00,30.0,29.0,30.31,SSW,193,0.0,0.0,96,0.00,,,0.00,,2013-01-22 12:23:00,
2013-01-22 06:33:00,30.0,29.0,30.31,SSW,193,0.0,0.0,96,0.00,,,0.00,,2013-01-22 12:33:00,
2013-01-22 06:43:00,30.0,29.0,30.32,SSW,193,0.0,0.0,97,0.00,,,0.00,,2013-01-22 12:43:00,
2013-01-22 06:53:00,31.0,30.0,30.32,SSW,193,0.0,0.0,96,0.00,,,0.00,,2013-01-22 12:53:00,
2013-01-22 07:03:00,31.0,30.0,30.32,SSW,193,0.0,0.0,96,0.00,,,0.00,,2013-01-22 13:03:00,
2013-01-22 07:13:00,31.0,30.0,30.32,SSW,193,0.0,0.0,96,0.00,,,0.00,,2013-01-22 13:13:00,
2013-01-22 07:23:00,32.0,31.0,30.32,SSW,193,0.0,0.0,96,0.00,,,0.00,,2013-01-22 13:23:00,
2013-01-22 07:33:00,32.0,31.0,30.32,SSW,193,0.0,0.0,95,0.00,,,0.00,,2013-01-22 13:33:00,
2013-01-22 07:43:00,32.0,31.0,30.32,SSW,193,0.0,0.0,95,0.00,,,0.00,,2013-01-22 13:43:00,
2013-01-22 07:53:00,32.0,31.0,30.32,SSW,193,0.0,0.0,96,0.00,,,0.00,,2013-01-22 13:53:00,
2013-01-22 08:03:00,32.0,31.0,30.32,SSW,193,0.0,0.0,96,0.00,,,0.00,,2013-01-22 14:03:00,
2013-01-22 08:13:00,32.0,31.0,30.32,SSW,193,0.0,0.0,96,0.00,,,0.00,,2013-01-22 14:13:00,
2013-01-22 08:23:00,33.0,32.0,30.32,SSW,193,0.0,0.0,96,0.00,,,0.00,,2013-01-22 14:23:00,
2013-01-22 08:33:00,35.0,34.0,30.32,SSW,193,0.0,0.0,95,0.00,,,0.00,,2013-01-22 14:33:00,
2013-01-22 08:43:00,35.0,34.0,30.32,SSW,193,0.0,0.0,95,0.00,,,0.00,,2013-01-22 14:43:00,
2013-01-22 08:54:00,38.0,34.0,30.32,SSW,193,0.0,0.0,87,0.00,,,0.00,,2013-01-22 14:54:00,
2013-01-22 09:03:00,38.0,34.0,30.33,North,353,3.0,4.0,87,0.00,,,0.00,,2013-01-22 15:03:00,
2013-01-22 09:12:00,38.0,34.0,30.33,North,353,3.0,4.0,87,0.00,,,0.00,,2013-01-22 15:12:00,
2013-01-22 09:23:00,39.0,35.0,30.33,NE,53,3.0,3.0,85,0.00,,,0.00,,2013-01-22 15:23:00,
2013-01-22 09:33:00,43.0,37.0,30.33,NNE,24,0.0,0.0,80,0.00,,,0.00,,2013-01-22 15:33:00,
2013-01-22 09:43:00,43.0,37.0,30.33,NNE,24,0.0,0.0,80,0.00,,,0.00,,2013-01-22 15:43:00,
2013-01-22 09:53:00,45.0,38.0,30.33,ESE,118,4.0,4.0,75,0.00,,,0.00,,2013-01-22 15:53:00,
2013-01-22 10:03:00,47.0,38.0,30.33,ESE,111,4.0,4.0,71,0.00,,,0.00,,2013-01-22 16:03:00,
2013-01-22 10:13:00,47.0,38.0,30.33,ESE,111,4.0,4.0,71,0.00,,,0.00,,2013-01-22 16:13:00,
2013-01-22 10:23:00,48.0,38.0,30.33,East,90,2.0,3.0,69,0.00,,,0.00,,2013-01-22 16:23:00,
2013-01-22 10:33:00,52.0,41.0,30.33,ESE,107,3.0,4.0,67,0.00,,,0.00,,2013-01-22 16:33:00,
2013-01-22 10:43:00,52.0,41.0,30.33,ESE,107,3.0,4.0,67,0.00,,,0.00,,2013-01-22 16:43:00,
2013-01-22 10:54:00,54.0,42.0,30.32,ESE,115,0.0,0.0,64,0.00,,,0.00,,2013-01-22 16:54:00,
2013-01-22 11:03:00,57.0,44.0,30.32,SW,219,3.0,3.0,62,0.00,,,0.00,,2013-01-22 17:03:00,
2013-01-22 11:12:00,57.0,44.0,30.32,SW,219,3.0,3.0,62,0.00,,,0.00,,2013-01-22 17:12:00,
2013-01-22 11:23:00,59.0,45.0,30.31,SE,125,0.0,5.0,59,0.00,,,0.00,,2013-01-22 17:23:00,
2013-01-22 11:34:00,61.0,46.0,30.30,SE,129,0.0,0.0,57,0.00,,,0.00,,2013-01-22 17:34:00,
2013-01-22 11:43:00,61.0,46.0,30.30,SE,129,0.0,0.0,57,0.00,,,0.00,,2013-01-22 17:43:00,
2013-01-22 11:53:00,60.0,44.0,30.29,NW,325,3.0,4.0,56,0.00,,,0.00,,2013-01-22 17:53:00,
2013-01-22 12:03:00,59.0,44.0,30.29,NW,314,3.0,3.0,58,0.00,,,0.00,,2013-01-22 18:03:00,
2013-01-22 12:13:00,59.0,44.0,30.29,NW,314,3.0,3.0,58,0.00,,,0.00,,2013-01-22 18:13:00,
2013-01-22 12:23:00,61.0,45.0,30.27,South,173,0.0,0.0,56,0.00,,,0.00,,2013-01-22 18:23:00,
2013-01-22 12:33:00,62.0,45.0,30.26,WNW,290,1.0,0.0,54,0.00,,,0.00,,2013-01-22 18:33:00,
2013-01-22 12:43:00,62.0,45.0,30.26,WNW,290,1.0,0.0,54,0.00,,,0.00,,2013-01-22 18:43:00,
2013-01-22 12:54:00,62.0,46.0,30.25,WSW,243,1.0,2.0,55,0.00,,,0.00,,2013-01-22 18:54:00,
2013-01-22 13:03:00,64.0,46.0,30.24,WNW,285,2.0,6.0,52,0.00,,,0.00,,2013-01-22 19:03:00,
2013-01-22 13:13:00,64.0,46.0,30.24,WNW,285,2.0,6.0,52,0.00,,,0.00,,2013-01-22 19:13:00,
2013-01-22 13:23:00,64.0,47.0,30.23,WSW,246,0.0,0.0,53,0.00,,,0.00,,2013-01-22 19:23:00,
2013-01-22 13:33:00,65.0,46.0,30.22,NW,309,1.0,0.0,51,0.00,,,0.00,,2013-01-22 19:33:00,
2013-01-22 13:43:00,65.0,46.0,30.22,NW,309,1.0,0.0,51,0.00,,,0.00,,2013-01-22 19:43:00,
2013-01-22 13:53:00,66.0,47.0,30.21,NW,319,3.0,3.0,51,0.00,,,0.00,,2013-01-22 19:53:00,
2013-01-22 14:03:00,67.0,48.0,30.20,South,191,0.0,0.0,50,0.00,,,0.00,,2013-01-22 20:03:00,
2013-01-22 14:12:00,67.0,48.0,30.20,South,191,0.0,0.0,50,0.00,,,0.00,,2013-01-22 20:12:00,
2013-01-22 14:23:00,68.0,49.0,30.19,WSW,252,3.0,7.0,50,0.00,,,0.00,,2013-01-22 20:23:00,
2013-01-22 14:33:00,70.0,50.0,30.18,SSW,212,4.0,4.0,50,0.00,,,0.00,,2013-01-22 20:33:00,
2013-01-22 14:43:00,70.0,50.0,30.18,SSW,212,4.0,4.0,50,0.00,,,0.00,,2013-01-22 20:43:00,
2013-01-22 14:53:00,70.0,50.0,30.16,SW,236,4.0,4.0,50,0.00,,,0.00,,2013-01-22 20:53:00,
2013-01-22 15:03:00,72.0,53.0,30.16,SW,224,9.0,10.0,52,0.00,,,0.00,,2013-01-22 21:03:00,
2013-01-22 15:13:00,72.0,53.0,30.16,SW,224,9.0,10.0,52,0.00,,,0.00,,2013-01-22 21:13:00,
2013-01-22 15:23:00,72.0,53.0,30.16,SW,222,10.0,16.0,52,0.00,,,0.00,,2013-01-22 21:23:00,
2013-01-22 15:33:00,73.0,54.0,30.16,WSW,240,7.0,7.0,52,0.00,,,0.00,,2013-01-22 21:33:00,
2013-01-22 15:43:00,73.0,54.0,30.16,WSW,240,7.0,7.0,52,0.00,,,0.00,,2013-01-22 21:43:00,
2013-01-22 15:53:00,73.0,54.0,30.15,WSW,248,12.0,12.0,52,0.00,,,0.00,,2013-01-22 21:53:00,
2013-01-22 16:03:00,72.0,54.0,30.16,South,179,9.0,9.0,54,0.00,,,0.00,,2013-01-22 22:03:00,
2013-01-22 16:12:00,72.0,54.0,30.16,South,179,9.0,9.0,54,0.00,,,0.00,,2013-01-22 22:12:00,
2013-01-22 16:22:00,71.0,54.0,30.15,SSW,205,11.0,11.0,56,0.00,,,0.00,,2013-01-22 22:22:00,
2013-01-22 16:32:00,71.0,54.0,30.15,SSW,205,11.0,11.0,56,0.00,,,0.00,,2013-01-22 22:32:00,
2013-01-22 16:43:00,70.0,55.0,30.15,SW,222,10.0,10.0,59,0.00,,,0.00,,2013-01-22 22:43:00,
2013-01-22 16:53:00,68.0,54.0,30.15,SW,219,9.0,14.0,61,0.00,,,0.00,,2013-01-22 22:53:00,
2013-01-22 17:02:00,67.0,54.0,30.15,SSW,193,8.0,9.0,63,0.00,,,0.00,,2013-01-22 23:02:00,
2013-01-22 17:12:00,67.0,54.0,30.15,SSW,193,8.0,9.0,63,0.00,,,0.00,,2013-01-22 23:12:00,
2013-01-22 17:23:00,67.0,55.0,30.15,SSW,205,7.0,12.0,65,0.00,,,0.00,,2013-01-22 23:23:00,
2013-01-22 17:33:00,66.0,55.0,30.15,SSW,204,11.0,13.0,67,0.00,,,0.00,,2013-01-22 23:33:00,
2013-01-22 17:43:00,66.0,55.0,30.15,SSW,204,11.0,13.0,67,0.00,,,0.00,,2013-01-22 23:43:00,
2013-01-22 17:53:00,65.0,55.0,30.15,SW,231,7.0,9.0,69,0.00,,,0.00,,2013-01-22 23:53:00,
2013-01-22 18:03:00,63.0,54.0,30.15,WSW,238,8.0,8.0,72,0.00,,,0.00,,2013-01-23 00:03:00,
2013-01-22 18:12:00,63.0,54.0,30.15,WSW,238,8.0,8.0,72,0.00,,,0.00,,2013-01-23 00:12:00,
2013-01-22 18:22:00,61.0,53.0,30.15,SW,232,7.0,7.0,76,0.00,,,0.00,,2013-01-23 00:22:00,
2013-01-22 18:33:00,59.0,53.0,30.15,SW,233,6.0,8.0,80,0.00,,,0.00,,2013-01-23 00:33:00,
2013-01-22 18:43:00,59.0,53.0,30.15,SW,233,6.0,8.0,80,0.00,,,0.00,,2013-01-23 00:43:00,
2013-01-22 18:52:00,57.0,52.0,30.16,WSW,240,6.0,6.0,84,0.00,,,0.00,,2013-01-23 00:52:00,
2013-01-22 19:03:00,56.0,52.0,30.16,WSW,238,6.0,6.0,87,0.00,,,0.00,,2013-01-23 01:03:00,
2013-01-22 19:13:00,56.0,52.0,30.16,WSW,238,6.0,6.0,87,0.00,,,0.00,,2013-01-23 01:13:00,
2013-01-22 19:22:00,55.0,52.0,30.16,SW,232,4.0,4.0,88,0.00,,,0.00,,2013-01-23 01:22:00,
2013-01-22 19:33:00,53.0,50.0,30.16,SW,217,5.0,5.0,91,0.00,,,0.00,,2013-01-23 01:33:00,
2013-01-22 19:43:00,53.0,50.0,30.16,SW,217,5.0,5.0,91,0.00,,,0.00,,2013-01-23 01:43:00,
2013-01-22 19:52:00,51.0,49.0,30.17,South,187,4.0,4.0,93,0.00,,,0.00,,2013-01-23 01:52:00,
2013-01-22 20:03:00,50.0,49.0,30.17,SSW,205,3.0,4.0,95,0.00,,,0.00,,2013-01-23 02:03:00,
2013-01-22 20:12:00,50.0,49.0,30.17,SSW,205,3.0,4.0,95,0.00,,,0.00,,2013-01-23 02:12:00,
2013-01-22 20:23:00,49.0,48.0,30.17,SSW,201,3.0,3.0,95,0.00,,,0.00,,2013-01-23 02:23:00,
2013-01-22 20:33:00,49.0,48.0,30.18,SW,219,3.0,3.0,96,0.00,,,0.00,,2013-01-23 02:33:00,
2013-01-22 20:42:00,49.0,48.0,30.18,SW,219,3.0,3.0,96,0.00,,,0.00,,2013-01-23 02:42:00,
2013-01-22 20:53:00,48.0,47.0,30.19,SW,219,2.0,3.0,96,0.00,,,0.00,,2013-01-23 02:53:00,
2013-01-22 21:03:00,47.0,46.0,30.19,SW,219,3.0,3.0,97,0.00,,,0.00,,2013-01-23 03:03:00,
2013-01-22 21:12:00,47.0,46.0,30.19,SW,219,3.0,3.0,97,0.00,,,0.00,,2013-01-23 03:12:00,
2013-01-22 21:23:00,46.0,45.0,30.20,SSW,193,2.0,4.0,97,0.00,,,0.00,,2013-01-23 03:23:00,
2013-01-22 21:32:00,46.0,45.0,30.20,SSE,165,0.0,0.0,97,0.00,,,0.00,,2013-01-23 03:32:00,
2013-01-22 21:42:00,46.0,45.0,30.20,SSE,165,0.0,0.0,97,0.00,,,0.00,,2013-01-23 03:42:00,
2013-01-22 21:53:00,45.0,44.0,30.20,SSE,165,0.0,0.0,97,0.00,,,0.00,,2013-01-23 03:53:00,
2013-01-22 22:03:00,44.0,43.0,30.20,SSE,165,0.0,0.0,98,0.00,,,0.00,,2013-01-23 04:03:00,
2013-01-22 22:12:00,44.0,43.0,30.20,SSE,165,0.0,0.0,98,0.00,,,0.00,,2013-01-23 04:12:00,
2013-01-22 22:22:00,44.0,44.0,30.21,SSE,165,0.0,0.0,100,0.00,,,0.00,,2013-01-23 04:22:00,
2013-01-22 22:32:00,44.0,44.0,30.21,SSE,165,0.0,0.0,100,0.00,,,0.00,,2013-01-23 04:32:00,
2013-01-22 22:43:00,44.0,44.0,30.21,SSE,165,0.0,0.0,100,0.00,,,0.00,,2013-01-23 04:43:00,
2013-01-22 22:53:00,44.0,44.0,30.22,SSE,165,0.0,0.0,100,0.00,,,0.00,,2013-01-23 04:53:00,
2013-01-22 23:03:00,44.0,44.0,30.22,SSE,165,0.0,0.0,100,0.00,,,0.00,,2013-01-23 05:03:00,
2013-01-22 23:12:00,44.0,44.0,30.22,SSE,165,0.0,0.0,100,0.00,,,0.00,,2013-01-23 05:12:00,
2013-01-22 23:22:00,44.0,44.0,30.23,NNE,13,0.0,0.0,100,0.00,,,0.00,,2013-01-23 05:22:00,
2013-01-22 23:33:00,45.0,45.0,30.23,East,93,0.0,0.0,100,0.00,,,0.00,,2013-01-23 05:33:00,
2013-01-22 23:43:00,45.0,45.0,30.23,East,93,0.0,0.0,100,0.00,,,0.00,,2013-01-23 05:43:00,
2013-01-22 23:53:00,46.0,46.0,30.24,East,93,0.0,0.0,100,0.00,,,0.00,,2013-01-23 05:53:00,